Time,TemperatureF,DewpointF,PressureIn,WindDirection,WindDirectionDegrees,WindSpeedMPH,WindSpeedGustMPH,Humidity,HourlyPrecipIn,Conditions,Clouds,dailyrainin,SoftwareType,DateUTC
2013-07-25 00:01:00,69.3,67.2,29.91,NNE,27,1.2,0.0,93,0.00,CLR,,0.00,WeatherDisplay:10.37,2013-07-25 04:01:00,
2013-07-25 00:06:00,69.2,67.4,29.91,NNE,27,0.0,0.0,94,0.00,CLR,,0.00,WeatherDisplay:10.37,2013-07-25 04:06:00,
2013-07-25 00:11:00,69.2,67.4,29.91,NNE,27,0.0,0.0,94,0.00,CLR,,0.00,WeatherDisplay:10.37,2013-07-25 04:11:00,
2013-07-25 00:16:00,69.2,67.4,29.91,NNE,27,0.0,0.0,94,0.00,CLR,,0.00,WeatherDisplay:10.37,2013-07-25 04:16:00,
2013-07-25 00:21:00,69.2,67.4,29.91,NNE,27,0.0,0.0,94,0.00,CLR,,0.00,WeatherDisplay:10.37,2013-07-25 04:21:00,
2013-07-25 00:26:00,69.2,67.4,29.92,NNE,31,1.2,0.0,94,0.00,CLR,,0.00,WeatherDisplay:10.37,2013-07-25 04:26:00,
2013-07-25 00:31:00,69.1,67.3,29.91,NNE,31,0.0,0.0,94,0.00,CLR,,0.00,WeatherDisplay:10.37,2013-07-25 04:31:00,
2013-07-25 00:36:00,69.0,67.2,29.91,NE,42,0.0,0.0,94,0.00,CLR,,0.00,WeatherDisplay:10.37,2013-07-25 04:36:00,
2013-07-25 00:41:00,69.0,67.5,29.91,East,79,2.3,0.0,95,0.00,CLR,,0.00,WeatherDisplay:10.37,2013-07-25 04:41:00,
2013-07-25 00:46:00,69.0,67.2,29.92,East,79,0.0,0.0,94,0.00,CLR,,0.00,WeatherDisplay:10.37,2013-07-25 04:46:00,
2013-07-25 00:51:00,69.0,67.5,29.92,East,79,0.0,0.0,95,0.00,CLR,,0.00,WeatherDisplay:10.37,2013-07-25 04:51:00,
2013-07-25 00:56:00,69.0,67.5,29.92,East,79,0.0,0.0,95,0.00,CLR,,0.00,WeatherDisplay:10.37,2013-07-25 04:56:00,
2013-07-25 01:01:00,69.0,67.5,29.92,SSW,202,1.2,0.0,95,0.00,CLR,,0.00,WeatherDisplay:10.37,2013-07-25 05:01:00,
2013-07-25 01:07:00,68.9,67.4,29.92,SSW,202,1.2,0.0,95,0.00,CLR,,0.00,WeatherDisplay:10.37,2013-07-25 05:07:00,
2013-07-25 01:12:00,68.8,67.3,29.92,SSW,202,0.0,0.0,95,0.00,CLR,,0.00,WeatherDisplay:10.37,2013-07-25 05:12:00,
2013-07-25 01:17:00,68.8,67.0,29.92,SSW,202,0.0,0.0,94,0.00,CLR,,0.00,WeatherDisplay:10.37,2013-07-25 05:17:00,
2013-07-25 01:22:00,68.7,67.2,29.91,SSW,202,0.0,0.0,95,0.00,CLR,,0.00,WeatherDisplay:10.37,2013-07-25 05:22:00,
2013-07-25 01:27:00,68.6,66.8,29.92,SSW,202,0.0,0.0,94,0.00,CLR,,0.00,WeatherDisplay:10.37,2013-07-25 05:27:00,
2013-07-25 01:32:00,68.5,66.7,29.92,SSW,202,0.0,0.0,94,0.00,CLR,,0.00,WeatherDisplay:10.37,2013-07-25 05:32:00,
2013-07-25 01:37:00,68.5,66.7,29.92,SSW,202,0.0,0.0,94,0.00,CLR,,0.00,WeatherDisplay:10.37,2013-07-25 05:37:00,
2013-07-25 01:42:00,68.4,66.6,29.91,SSW,202,0.0,0.0,94,0.00,CLR,,0.00,WeatherDisplay:10.37,2013-07-25 05:42:00,
2013-07-25 01:47:00,68.4,66.9,29.92,SSW,202,0.0,0.0,95,0.00,CLR,,0.00,WeatherDisplay:10.37,2013-07-25 05:47:00,
2013-07-25 01:52:00,68.3,66.8,29.91,SSW,202,0.0,0.0,95,0.00,CLR,,0.00,WeatherDisplay:10.37,2013-07-25 05:52:00,
2013-07-25 01:57:00,68.1,66.3,29.91,SSW,202,0.0,0.0,94,0.00,CLR,,0.00,WeatherDisplay:10.37,2013-07-25 05:57:00,
2013-07-25 02:02:00,68.0,66.2,29.91,SSW,202,0.0,0.0,94,0.00,CLR,,0.00,WeatherDisplay:10.37,2013-07-25 06:02:00,
2013-07-25 02:07:00,67.8,66.0,29.91,SSW,202,0.0,0.0,94,0.00,CLR,,0.00,WeatherDisplay:10.37,2013-07-25 06:07:00,
2013-07-25 02:12:00,67.7,66.2,29.91,SSW,202,0.0,0.0,95,0.00,CLR,,0.00,WeatherDisplay:10.37,2013-07-25 06:12:00,
2013-07-25 02:17:00,67.6,66.1,29.91,SSW,202,1.1,1.1,95,0.00,CLR,,0.00,WeatherDisplay:10.37,2013-07-25 06:17:00,
2013-07-25 02:22:00,67.5,66.0,29.91,SSW,202,0.0,0.0,95,0.00,CLR,,0.00,WeatherDisplay:10.37,2013-07-25 06:22:00,
2013-07-25 02:27:00,67.4,66.2,29.91,SSW,202,1.2,0.0,96,0.00,,,0.00,WeatherDisplay:10.37,2013-07-25 06:27:00,
2013-07-25 02:32:00,67.3,66.1,29.91,SSW,202,0.0,0.0,96,0.00,,,0.00,WeatherDisplay:10.37,2013-07-25 06:32:00,
2013-07-25 02:37:00,67.3,66.1,29.91,SSW,202,0.0,0.0,96,0.00,,,0.00,WeatherDisplay:10.37,2013-07-25 06:37:00,
2013-07-25 02:42:00,67.2,66.0,29.91,SSW,202,0.0,0.1,96,0.00,,,0.00,WeatherDisplay:10.37,2013-07-25 06:42:00,
2013-07-25 02:47:00,67.1,65.9,29.91,SSW,202,0.0,0.0,96,0.00,,,0.00,WeatherDisplay:10.37,2013-07-25 06:47:00,
2013-07-25 02:52:00,67.1,65.9,29.91,SSW,202,0.0,0.0,96,0.00,,,0.00,WeatherDisplay:10.37,2013-07-25 06:52:00,
2013-07-25 02:57:00,67.1,65.9,29.91,SSW,202,0.0,0.0,96,0.00,,,0.00,WeatherDisplay:10.37,2013-07-25 06:57:00,
2013-07-25 03:02:00,67.1,65.9,29.91,SSW,202,0.0,0.0,96,0.00,,,0.00,WeatherDisplay:10.37,2013-07-25 07:02:00,
2013-07-25 03:07:00,67.0,65.8,29.91,SSW,202,0.0,0.0,96,0.00,,,0.00,WeatherDisplay:10.37,2013-07-25 07:07:00,
2013-07-25 03:12:00,66.9,65.7,29.91,SSW,202,0.0,0.0,96,0.00,,,0.00,WeatherDisplay:10.37,2013-07-25 07:12:00,
2013-07-25 03:17:00,66.9,65.7,29.91,SSW,202,0.0,0.0,96,0.00,,,0.00,WeatherDisplay:10.37,2013-07-25 07:17:00,
2013-07-25 03:22:00,66.9,65.7,29.91,SSW,202,0.0,0.0,96,0.00,,,0.00,WeatherDisplay:10.37,2013-07-25 07:22:00,
2013-07-25 03:27:00,66.8,65.6,29.91,SSW,202,0.0,0.0,96,0.00,,,0.00,WeatherDisplay:10.37,2013-07-25 07:27:00,
2013-07-25 03:32:00,66.6,65.1,29.91,SSW,202,0.0,0.0,95,0.00,CLR,,0.00,WeatherDisplay:10.37,2013-07-25 07:32:00,
2013-07-25 03:37:00,66.5,65.3,29.91,SSW,202,0.0,0.0,96,0.00,,,0.00,WeatherDisplay:10.37,2013-07-25 07:37:00,
2013-07-25 03:42:00,66.4,65.2,29.90,SSW,202,0.0,0.0,96,0.00,,,0.00,WeatherDisplay:10.37,2013-07-25 07:42:00,
2013-07-25 03:47:00,66.3,65.1,29.91,SSW,202,0.0,0.0,96,0.00,,,0.00,WeatherDisplay:10.37,2013-07-25 07:47:00,
2013-07-25 03:52:00,66.3,65.1,29.90,SSW,202,0.0,0.0,96,0.00,,,0.00,WeatherDisplay:10.37,2013-07-25 07:52:00,
2013-07-25 03:57:00,66.3,65.1,29.91,SSW,202,0.0,0.0,96,0.00,,,0.00,WeatherDisplay:10.37,2013-07-25 07:57:00,
2013-07-25 04:02:00,66.3,65.1,29.91,SSW,202,0.0,0.0,96,0.00,,,0.00,WeatherDisplay:10.37,2013-07-25 08:02:00,
2013-07-25 04:07:00,66.2,65.3,29.91,SSW,202,0.0,0.0,97,0.00,,,0.00,WeatherDisplay:10.37,2013-07-25 08:07:00,
2013-07-25 04:12:00,66.2,65.3,29.91,SSW,202,0.0,0.0,97,0.00,,,0.00,WeatherDisplay:10.37,2013-07-25 08:12:00,
2013-07-25 04:17:00,66.2,65.3,29.91,SSW,202,0.0,0.0,97,0.00,,,0.00,WeatherDisplay:10.37,2013-07-25 08:17:00,
2013-07-25 04:22:00,66.2,65.3,29.91,SSW,202,0.0,0.0,97,0.00,,,0.00,WeatherDisplay:10.37,2013-07-25 08:22:00,
2013-07-25 04:27:00,66.1,65.2,29.91,SSW,202,0.0,0.0,97,0.00,,,0.00,WeatherDisplay:10.37,2013-07-25 08:27:00,
2013-07-25 04:32:00,66.1,65.2,29.91,SSW,202,0.0,0.0,97,0.00,,,0.00,WeatherDisplay:10.37,2013-07-25 08:32:00,
2013-07-25 04:37:00,66.1,65.2,29.90,SSW,202,0.0,0.0,97,0.00,,,0.00,WeatherDisplay:10.37,2013-07-25 08:37:00,
2013-07-25 04:42:00,66.1,65.2,29.91,SSW,202,0.0,0.0,97,0.00,,,0.00,WeatherDisplay:10.37,2013-07-25 08:42:00,
2013-07-25 04:47:00,66.0,65.1,29.91,SSW,202,0.0,0.0,97,0.00,,,0.00,WeatherDisplay:10.37,2013-07-25 08:47:00,
2013-07-25 04:52:00,66.0,65.1,29.91,SSW,202,0.0,0.0,97,0.00,,,0.00,WeatherDisplay:10.37,2013-07-25 08:52:00,
2013-07-25 04:57:00,65.9,65.0,29.91,SSW,202,0.0,0.0,97,0.00,,,0.00,WeatherDisplay:10.37,2013-07-25 08:57:00,
2013-07-25 05:02:00,65.8,64.9,29.91,SSW,202,0.0,0.0,97,0.00,,,0.00,WeatherDisplay:10.37,2013-07-25 09:02:00,
2013-07-25 05:07:00,65.8,64.9,29.91,SSW,202,0.0,0.0,97,0.00,,,0.00,WeatherDisplay:10.37,2013-07-25 09:07:00,
2013-07-25 05:12:00,65.7,64.8,29.91,SSW,202,0.0,0.0,97,0.00,,,0.00,WeatherDisplay:10.37,2013-07-25 09:12:00,
2013-07-25 05:17:00,65.6,64.7,29.91,SSW,202,0.0,0.0,97,0.00,,,0.00,WeatherDisplay:10.37,2013-07-25 09:17:00,
2013-07-25 05:22:00,65.6,64.7,29.91,SSW,202,0.0,0.0,97,0.00,,,0.00,WeatherDisplay:10.37,2013-07-25 09:22:00,
2013-07-25 05:27:00,65.5,64.6,29.91,SSW,202,0.0,0.0,97,0.00,,,0.00,WeatherDisplay:10.37,2013-07-25 09:27:00,
2013-07-25 05:32:00,65.4,64.5,29.91,SSW,202,0.0,0.0,97,0.00,,,0.00,WeatherDisplay:10.37,2013-07-25 09:32:00,
2013-07-25 05:37:00,65.3,64.4,29.91,SSW,202,0.0,0.0,97,0.00,,,0.00,WeatherDisplay:10.37,2013-07-25 09:37:00,
2013-07-25 05:42:00,65.2,64.3,29.91,SSW,202,0.0,0.0,97,0.00,,,0.00,WeatherDisplay:10.37,2013-07-25 09:42:00,
2013-07-25 05:47:00,65.1,64.2,29.91,SSW,202,0.0,0.0,97,0.00,,,0.00,WeatherDisplay:10.37,2013-07-25 09:47:00,
2013-07-25 05:52:00,64.9,64.0,29.91,SSW,202,0.0,0.0,97,0.00,,,0.00,WeatherDisplay:10.37,2013-07-25 09:52:00,
2013-07-25 05:57:00,64.8,63.9,29.91,SSW,202,0.0,0.0,97,0.00,,,0.00,WeatherDisplay:10.37,2013-07-25 09:57:00,
2013-07-25 06:02:00,64.8,63.9,29.91,SSW,202,0.0,0.0,97,0.00,,,0.00,WeatherDisplay:10.37,2013-07-25 10:02:00,
2013-07-25 06:07:00,64.7,63.8,29.92,SSW,202,0.0,0.0,97,0.00,,,0.00,WeatherDisplay:10.37,2013-07-25 10:07:00,
2013-07-25 06:12:00,64.6,63.7,29.92,SSW,202,0.0,0.0,97,0.00,,,0.00,WeatherDisplay:10.37,2013-07-25 10:12:00,
2013-07-25 06:17:00,64.6,63.7,29.92,SSW,202,0.0,0.0,97,0.00,,,0.00,WeatherDisplay:10.37,2013-07-25 10:17:00,
2013-07-25 06:22:00,64.4,63.5,29.92,SSW,202,0.0,0.0,97,0.00,,,0.00,WeatherDisplay:10.37,2013-07-25 10:22:00,
2013-07-25 06:27:00,64.4,63.5,29.92,SSW,202,0.0,0.0,97,0.00,,,0.00,WeatherDisplay:10.37,2013-07-25 10:27:00,
2013-07-25 06:32:00,64.3,63.7,29.92,SSW,202,0.0,0.0,98,0.00,,,0.00,WeatherDisplay:10.37,2013-07-25 10:32:00,
2013-07-25 06:37:00,64.3,63.7,29.92,SSW,202,0.0,0.0,98,0.00,,,0.00,WeatherDisplay:10.37,2013-07-25 10:37:00,
2013-07-25 06:42:00,64.3,63.7,29.93,SSW,202,1.2,0.0,98,0.00,,,0.00,WeatherDisplay:10.37,2013-07-25 10:42:00,
2013-07-25 06:47:00,64.2,63.6,29.93,SE,141,0.0,0.0,98,0.00,,,0.00,WeatherDisplay:10.37,2013-07-25 10:47:00,
2013-07-25 06:52:00,64.2,63.6,29.93,SE,141,0.0,0.0,98,0.00,,,0.00,WeatherDisplay:10.37,2013-07-25 10:52:00,
2013-07-25 06:57:00,64.2,63.6,29.93,SE,141,0.0,0.0,98,0.00,,,0.00,WeatherDisplay:10.37,2013-07-25 10:57:00,
2013-07-25 07:02:00,64.2,63.6,29.93,SE,141,0.0,0.0,98,0.00,,,0.00,WeatherDisplay:10.37,2013-07-25 11:02:00,
2013-07-25 07:07:00,64.2,63.6,29.93,SE,141,0.0,0.0,98,0.00,,,0.00,WeatherDisplay:10.37,2013-07-25 11:07:00,
2013-07-25 07:12:00,64.2,63.6,29.94,SE,141,0.0,0.0,98,0.00,,,0.00,WeatherDisplay:10.37,2013-07-25 11:12:00,
2013-07-25 07:17:00,64.1,63.5,29.93,SE,141,0.0,0.0,98,0.00,,,0.00,WeatherDisplay:10.37,2013-07-25 11:17:00,
2013-07-25 07:22:00,64.0,63.4,29.94,SE,141,0.0,0.0,98,0.00,,,0.00,WeatherDisplay:10.37,2013-07-25 11:22:00,
2013-07-25 07:27:00,63.9,63.3,29.94,SE,141,0.0,0.0,98,0.00,,,0.00,WeatherDisplay:10.37,2013-07-25 11:27:00,
2013-07-25 07:32:00,63.9,63.3,29.95,SE,141,0.0,0.0,98,0.00,,,0.00,WeatherDisplay:10.37,2013-07-25 11:32:00,
2013-07-25 07:37:00,63.9,63.3,29.95,SE,141,0.0,0.0,98,0.00,,,0.00,WeatherDisplay:10.37,2013-07-25 11:37:00,
2013-07-25 07:42:00,63.9,63.3,29.95,SE,141,0.0,0.0,98,0.00,,,0.00,WeatherDisplay:10.37,2013-07-25 11:42:00,
2013-07-25 07:47:00,63.9,63.3,29.95,SE,141,0.0,0.0,98,0.00,,,0.00,WeatherDisplay:10.37,2013-07-25 11:47:00,
2013-07-25 07:52:00,63.9,63.3,29.95,SE,141,0.0,0.0,98,0.00,,,0.00,WeatherDisplay:10.37,2013-07-25 11:52:00,
2013-07-25 07:57:00,63.8,63.2,29.95,SE,141,0.0,0.0,98,0.00,,,0.00,WeatherDisplay:10.37,2013-07-25 11:57:00,
2013-07-25 08:02:00,63.8,63.2,29.96,SE,141,0.0,0.0,98,0.00,,,0.00,WeatherDisplay:10.37,2013-07-25 12:02:00,
2013-07-25 08:07:00,63.7,63.1,29.96,SE,141,0.0,0.0,98,0.00,,,0.00,WeatherDisplay:10.37,2013-07-25 12:07:00,
2013-07-25 08:12:00,63.7,63.1,29.96,SE,141,0.0,0.0,98,0.00,,,0.00,WeatherDisplay:10.37,2013-07-25 12:12:00,
2013-07-25 08:17:00,63.7,63.1,29.96,SE,141,0.0,0.0,98,0.00,,,0.00,WeatherDisplay:10.37,2013-07-25 12:17:00,
2013-07-25 08:22:00,63.8,63.2,29.96,SE,141,0.0,0.0,98,0.00,,,0.00,WeatherDisplay:10.37,2013-07-25 12:22:00,
2013-07-25 08:27:00,63.8,63.2,29.97,SE,141,0.0,0.0,98,0.00,,,0.00,WeatherDisplay:10.37,2013-07-25 12:27:00,
2013-07-25 08:32:00,63.7,63.1,29.97,SE,141,0.0,0.0,98,0.00,,,0.00,WeatherDisplay:10.37,2013-07-25 12:32:00,
2013-07-25 08:37:00,63.7,63.1,29.97,SE,141,0.0,0.0,98,0.00,,,0.00,WeatherDisplay:10.37,2013-07-25 12:37:00,
2013-07-25 08:42:00,63.7,63.4,29.97,SE,141,0.0,0.0,99,0.00,,,0.00,WeatherDisplay:10.37,2013-07-25 12:42:00,
2013-07-25 08:47:00,63.7,63.4,29.97,SE,141,0.0,0.0,99,0.00,,,0.00,WeatherDisplay:10.37,2013-07-25 12:47:00,
2013-07-25 08:52:00,63.8,63.5,29.97,SE,141,0.0,0.0,99,0.00,,,0.00,WeatherDisplay:10.37,2013-07-25 12:52:00,
2013-07-25 08:57:00,63.8,63.5,29.98,SE,141,0.0,0.0,99,0.00,,,0.00,WeatherDisplay:10.37,2013-07-25 12:57:00,
2013-07-25 09:02:00,63.8,63.5,29.98,SE,141,0.0,0.0,99,0.00,,,0.00,WeatherDisplay:10.37,2013-07-25 13:02:00,
2013-07-25 09:07:00,63.8,63.5,29.97,SE,141,0.0,0.0,99,0.00,,,0.00,WeatherDisplay:10.37,2013-07-25 13:07:00,
2013-07-25 09:12:00,63.9,63.6,29.97,SE,141,0.0,0.0,99,0.00,,,0.00,WeatherDisplay:10.37,2013-07-25 13:12:00,
2013-07-25 09:18:00,63.9,63.6,29.97,SE,141,0.0,0.0,99,0.00,,,0.00,WeatherDisplay:10.37,2013-07-25 13:18:00,
2013-07-25 09:23:00,64.0,63.7,29.98,SE,141,0.0,0.0,99,0.00,,,0.00,WeatherDisplay:10.37,2013-07-25 13:23:00,
2013-07-25 09:28:00,64.0,63.7,29.98,SE,141,0.0,0.0,99,0.00,,,0.00,WeatherDisplay:10.37,2013-07-25 13:28:00,
2013-07-25 09:33:00,64.0,63.7,29.98,SE,141,0.0,0.0,99,0.00,,,0.00,WeatherDisplay:10.37,2013-07-25 13:33:00,
2013-07-25 09:38:00,64.2,63.9,29.98,SE,141,0.0,0.0,99,0.00,,,0.00,WeatherDisplay:10.37,2013-07-25 13:38:00,
2013-07-25 09:43:00,64.2,63.9,29.98,SE,141,1.2,1.2,99,0.00,,,0.00,WeatherDisplay:10.37,2013-07-25 13:43:00,
2013-07-25 09:48:00,64.3,64.0,29.98,SE,141,0.0,0.0,99,0.00,,,0.00,WeatherDisplay:10.37,2013-07-25 13:48:00,
2013-07-25 09:53:00,64.4,64.1,29.98,SE,141,0.0,0.0,99,0.00,,,0.00,WeatherDisplay:10.37,2013-07-25 13:53:00,
2013-07-25 09:58:00,64.5,64.2,29.98,SE,141,1.2,1.2,99,0.00,,,0.00,WeatherDisplay:10.37,2013-07-25 13:58:00,
2013-07-25 10:03:00,64.6,64.3,29.98,SE,141,1.2,0.0,99,0.00,,,0.00,WeatherDisplay:10.37,2013-07-25 14:03:00,
2013-07-25 10:08:00,64.6,64.3,29.98,SE,141,0.0,0.0,99,0.00,,,0.00,WeatherDisplay:10.37,2013-07-25 14:08:00,
2013-07-25 10:13:00,64.8,64.2,29.98,SE,141,0.0,0.0,98,0.00,,,0.00,WeatherDisplay:10.37,2013-07-25 14:13:00,
2013-07-25 10:18:00,64.9,64.3,29.98,SE,141,0.0,0.0,98,0.00,,,0.00,WeatherDisplay:10.37,2013-07-25 14:18:00,
2013-07-25 10:23:00,65.0,64.4,29.98,SE,141,0.0,0.0,98,0.00,,,0.00,WeatherDisplay:10.37,2013-07-25 14:23:00,
2013-07-25 10:28:00,65.1,64.5,29.97,SE,141,0.0,0.0,98,0.00,,,0.00,WeatherDisplay:10.37,2013-07-25 14:28:00,
2013-07-25 10:33:00,65.3,64.7,29.97,SE,141,0.0,0.0,98,0.00,,,0.00,WeatherDisplay:10.37,2013-07-25 14:33:00,
2013-07-25 10:38:00,65.6,65.0,29.97,SE,141,0.0,0.0,98,0.00,,,0.00,WeatherDisplay:10.37,2013-07-25 14:38:00,
2013-07-25 10:43:00,65.9,65.0,29.97,SE,141,0.0,0.0,97,0.00,,,0.00,WeatherDisplay:10.37,2013-07-25 14:43:00,
2013-07-25 10:48:00,66.2,65.3,29.97,SE,140,0.0,0.0,97,0.00,,,0.00,WeatherDisplay:10.37,2013-07-25 14:48:00,
2013-07-25 10:53:00,66.5,65.6,29.97,SE,140,0.0,0.0,97,0.00,,,0.00,WeatherDisplay:10.37,2013-07-25 14:53:00,
2013-07-25 10:58:00,66.8,65.9,29.97,SE,140,0.0,0.0,97,0.00,,,0.00,WeatherDisplay:10.37,2013-07-25 14:58:00,
2013-07-25 11:03:00,67.2,66.3,29.97,SE,140,1.2,0.0,97,0.00,,,0.00,WeatherDisplay:10.37,2013-07-25 15:03:00,
2013-07-25 11:08:00,67.5,66.3,29.97,SE,140,0.0,0.0,96,0.00,,,0.00,WeatherDisplay:10.37,2013-07-25 15:08:00,
2013-07-25 11:13:00,67.9,66.4,29.97,SE,140,0.0,0.0,95,0.00,CLR,,0.00,WeatherDisplay:10.37,2013-07-25 15:13:00,
2013-07-25 11:18:00,68.3,66.8,29.98,SE,140,0.0,0.0,95,0.00,CLR,,0.00,WeatherDisplay:10.37,2013-07-25 15:18:00,
2013-07-25 11:23:00,68.6,66.8,29.98,SE,140,0.0,0.0,94,0.00,CLR,,0.00,WeatherDisplay:10.37,2013-07-25 15:23:00,
2013-07-25 11:28:00,69.1,67.0,29.98,SE,140,0.0,0.0,93,0.00,CLR,,0.00,WeatherDisplay:10.37,2013-07-25 15:28:00,
2013-07-25 11:33:00,69.5,67.4,29.98,SE,140,0.0,0.0,93,0.00,CLR,,0.00,WeatherDisplay:10.37,2013-07-25 15:33:00,
2013-07-25 11:38:00,69.9,67.5,29.98,SE,140,0.0,0.0,92,0.00,CLR,,0.00,WeatherDisplay:10.37,2013-07-25 15:38:00,
2013-07-25 11:43:00,70.3,67.2,29.97,ESE,104,0.0,0.0,90,0.00,CLR,,0.00,WeatherDisplay:10.37,2013-07-25 15:43:00,
2013-07-25 11:48:00,70.7,67.0,29.98,ESE,104,0.0,0.0,88,0.00,CLR,,0.00,WeatherDisplay:10.37,2013-07-25 15:48:00,
2013-07-25 11:53:00,71.1,66.7,29.98,ESE,104,0.0,0.0,86,0.00,CLR,,0.00,WeatherDisplay:10.37,2013-07-25 15:53:00,
2013-07-25 11:58:00,71.5,67.4,29.98,ESE,104,0.0,0.0,87,0.00,CLR,,0.00,WeatherDisplay:10.37,2013-07-25 15:58:00,
2013-07-25 12:03:00,71.9,67.1,29.98,ESE,104,0.0,0.0,85,0.00,CLR,,0.00,WeatherDisplay:10.37,2013-07-25 16:03:00,
2013-07-25 12:08:00,72.2,67.1,29.98,ESE,104,0.0,0.0,84,0.00,CLR,,0.00,WeatherDisplay:10.37,2013-07-25 16:08:00,
2013-07-25 12:13:00,72.7,67.6,29.98,ESE,104,0.0,0.0,84,0.00,CLR,,0.00,WeatherDisplay:10.37,2013-07-25 16:13:00,
2013-07-25 12:18:00,73.2,68.1,29.98,ESE,104,0.0,0.0,84,0.00,CLR,,0.00,WeatherDisplay:10.37,2013-07-25 16:18:00,
2013-07-25 12:23:00,73.8,69.0,29.98,ESE,104,0.0,0.0,85,0.00,CLR,,0.00,WeatherDisplay:10.37,2013-07-25 16:23:00,
2013-07-25 12:28:00,74.2,68.3,29.98,ESE,104,0.0,0.0,82,0.00,CLR,,0.00,WeatherDisplay:10.37,2013-07-25 16:28:00,
2013-07-25 12:33:00,74.7,68.8,29.98,ESE,104,0.0,0.0,82,0.00,CLR,,0.00,WeatherDisplay:10.37,2013-07-25 16:33:00,
2013-07-25 12:38:00,75.2,68.6,29.98,ESE,104,0.0,0.0,80,0.00,CLR,,0.00,WeatherDisplay:10.37,2013-07-25 16:38:00,
2013-07-25 12:43:00,75.8,68.8,29.98,ESE,104,0.0,0.0,79,0.00,CLR,,0.00,WeatherDisplay:10.37,2013-07-25 16:43:00,
2013-07-25 12:48:00,76.4,68.3,29.98,ESE,104,0.0,0.0,76,0.00,CLR,,0.00,WeatherDisplay:10.37,2013-07-25 16:48:00,
2013-07-25 12:53:00,76.9,68.4,29.98,ESE,104,0.0,0.0,75,0.00,CLR,,0.00,WeatherDisplay:10.37,2013-07-25 16:53:00,
2013-07-25 12:58:00,77.3,66.7,29.98,ESE,104,0.0,0.0,70,0.00,CLR,,0.00,WeatherDisplay:10.37,2013-07-25 16:58:00,
2013-07-25 13:03:00,77.8,68.4,29.99,ESE,104,1.2,0.0,73,0.00,CLR,,0.00,WeatherDisplay:10.37,2013-07-25 17:03:00,
2013-07-25 13:08:00,78.4,69.8,29.98,NW,306,0.0,1.4,75,0.00,CLR,,0.00,WeatherDisplay:10.37,2013-07-25 17:08:00,
2013-07-25 13:13:00,79.2,69.8,29.98,WNW,300,0.0,0.0,73,0.00,CLR,,0.00,WeatherDisplay:10.37,2013-07-25 17:13:00,
2013-07-25 13:18:00,80.3,70.4,29.98,West,277,0.0,0.1,72,0.00,CLR,,0.00,WeatherDisplay:10.37,2013-07-25 17:18:00,
2013-07-25 13:23:00,81.2,70.1,29.98,West,277,0.0,0.0,69,0.00,CLR,,0.00,WeatherDisplay:10.37,2013-07-25 17:23:00,
2013-07-25 13:28:00,81.9,71.2,29.98,WNW,284,0.0,0.0,70,0.00,CLR,,0.00,WeatherDisplay:10.37,2013-07-25 17:28:00,
2013-07-25 13:33:00,82.7,69.7,29.98,WSW,242,5.8,5.8,65,0.00,CLR,,0.00,WeatherDisplay:10.37,2013-07-25 17:33:00,
2013-07-25 13:38:00,83.4,69.9,29.98,SSW,206,1.2,0.0,64,0.00,CLR,,0.00,WeatherDisplay:10.37,2013-07-25 17:38:00,
2013-07-25 13:43:00,83.9,70.4,29.98,SW,225,0.0,0.0,64,0.00,CLR,,0.00,WeatherDisplay:10.37,2013-07-25 17:43:00,
2013-07-25 13:48:00,84.1,69.7,29.98,SSW,203,0.0,0.0,62,0.00,CLR,,0.00,WeatherDisplay:10.37,2013-07-25 17:48:00,
2013-07-25 13:53:00,84.4,69.5,29.98,SSW,208,0.0,0.1,61,0.00,CLR,,0.00,WeatherDisplay:10.37,2013-07-25 17:53:00,
2013-07-25 13:58:00,84.5,69.6,29.98,South,174,3.5,0.0,61,0.00,CLR,,0.00,WeatherDisplay:10.37,2013-07-25 17:58:00,
2013-07-25 14:03:00,84.7,69.3,29.98,SW,223,3.5,3.5,60,0.00,CLR,,0.00,WeatherDisplay:10.37,2013-07-25 18:03:00,
2013-07-25 14:08:00,84.6,69.2,29.98,SSW,202,3.5,3.5,60,0.00,CLR,,0.00,WeatherDisplay:10.37,2013-07-25 18:08:00,
2013-07-25 14:13:00,84.4,70.0,29.98,South,185,8.1,8.1,62,0.00,CLR,,0.00,WeatherDisplay:10.37,2013-07-25 18:13:00,
2013-07-25 14:18:00,84.3,70.8,29.98,SSW,198,0.0,0.2,64,0.00,CLR,,0.00,WeatherDisplay:10.37,2013-07-25 18:18:00,
2013-07-25 14:23:00,84.2,70.2,29.98,SSW,198,1.2,1.2,63,0.00,CLR,,0.00,WeatherDisplay:10.37,2013-07-25 18:23:00,
2013-07-25 14:28:00,84.0,68.6,29.98,SSW,203,3.5,0.0,60,0.00,CLR,,0.00,WeatherDisplay:10.37,2013-07-25 18:28:00,
2013-07-25 14:33:00,83.9,70.0,29.98,SSW,193,0.0,0.0,63,0.00,CLR,,0.00,WeatherDisplay:10.37,2013-07-25 18:33:00,
2013-07-25 14:38:00,83.7,68.8,29.98,SSW,196,0.0,0.0,61,0.00,CLR,,0.00,WeatherDisplay:10.37,2013-07-25 18:38:00,
2013-07-25 14:43:00,83.6,69.2,29.98,SSW,196,0.0,0.0,62,0.00,CLR,,0.00,WeatherDisplay:10.37,2013-07-25 18:43:00,
2013-07-25 14:48:00,83.6,69.7,29.98,SSW,196,0.0,0.0,63,0.00,CLR,,0.00,WeatherDisplay:10.37,2013-07-25 18:48:00,
2013-07-25 14:53:00,83.4,68.5,29.98,SSW,196,0.0,0.0,61,0.00,CLR,,0.00,WeatherDisplay:10.37,2013-07-25 18:53:00,
2013-07-25 14:58:00,83.3,69.8,29.98,SSW,196,1.2,0.0,64,0.00,CLR,,0.00,WeatherDisplay:10.37,2013-07-25 18:58:00,
2013-07-25 15:03:00,83.3,70.8,29.98,SSW,196,1.2,0.0,66,0.00,CLR,,0.00,WeatherDisplay:10.37,2013-07-25 19:03:00,
2013-07-25 15:08:00,83.2,71.1,29.98,SSW,196,0.0,0.0,67,0.00,CLR,,0.00,WeatherDisplay:10.37,2013-07-25 19:08:00,
2013-07-25 15:13:00,83.1,71.4,29.98,SSW,196,0.0,0.0,68,0.00,CLR,,0.00,WeatherDisplay:10.37,2013-07-25 19:13:00,
2013-07-25 15:18:00,83.0,70.9,29.98,SSW,196,0.0,0.0,67,0.00,CLR,,0.00,WeatherDisplay:10.37,2013-07-25 19:18:00,
2013-07-25 15:23:00,82.9,69.9,29.97,SSW,208,0.0,0.0,65,0.00,CLR,,0.00,WeatherDisplay:10.37,2013-07-25 19:23:00,
2013-07-25 15:28:00,82.8,69.8,29.97,SW,216,0.0,0.0,65,0.00,CLR,,0.00,WeatherDisplay:10.37,2013-07-25 19:28:00,
2013-07-25 15:33:00,82.8,71.2,29.97,SW,215,1.2,0.0,68,0.00,CLR,,0.00,WeatherDisplay:10.37,2013-07-25 19:33:00,
2013-07-25 15:38:00,82.8,71.2,29.97,SSW,206,0.0,0.0,68,0.00,CLR,,0.00,WeatherDisplay:10.37,2013-07-25 19:38:00,
2013-07-25 15:43:00,82.7,69.3,29.97,SSW,208,1.2,1.2,64,0.00,CLR,,0.00,WeatherDisplay:10.37,2013-07-25 19:43:00,
2013-07-25 15:48:00,82.7,69.3,29.98,SSW,202,0.0,0.0,64,0.00,CLR,,0.00,WeatherDisplay:10.37,2013-07-25 19:48:00,
2013-07-25 15:53:00,82.6,69.2,29.98,WNW,287,0.0,0.0,64,0.00,CLR,,0.00,WeatherDisplay:10.37,2013-07-25 19:53:00,
2013-07-25 15:58:00,82.6,69.2,29.97,WNW,287,0.0,0.0,64,0.00,CLR,,0.00,WeatherDisplay:10.37,2013-07-25 19:58:00,
2013-07-25 16:03:00,82.5,68.6,29.97,WNW,287,0.0,0.0,63,0.00,CLR,,0.00,WeatherDisplay:10.37,2013-07-25 20:03:00,
2013-07-25 16:08:00,82.4,68.5,29.98,WNW,287,1.2,0.0,63,0.00,CLR,,0.00,WeatherDisplay:10.37,2013-07-25 20:08:00,
2013-07-25 16:13:00,82.3,69.4,29.97,WNW,287,1.2,0.0,65,0.00,CLR,,0.00,WeatherDisplay:10.37,2013-07-25 20:13:00,
2013-07-25 16:18:00,82.1,66.8,29.98,WNW,298,1.2,0.0,60,0.00,CLR,,0.00,WeatherDisplay:10.37,2013-07-25 20:18:00,
2013-07-25 16:23:00,81.6,66.4,29.98,NW,308,2.3,2.3,60,0.00,CLR,,0.00,WeatherDisplay:10.37,2013-07-25 20:23:00,
2013-07-25 16:28:00,81.3,67.5,29.98,WNW,295,0.0,0.0,63,0.00,CLR,,0.00,WeatherDisplay:10.37,2013-07-25 20:28:00,
2013-07-25 16:33:00,81.0,66.3,29.98,WNW,297,1.2,0.0,61,0.00,CLR,,0.00,WeatherDisplay:10.37,2013-07-25 20:33:00,
2013-07-25 16:38:00,80.9,67.1,29.98,WNW,297,0.0,0.0,63,0.00,CLR,,0.00,WeatherDisplay:10.37,2013-07-25 20:38:00,
2013-07-25 16:43:00,80.8,67.5,29.98,WNW,295,2.3,2.3,64,0.00,CLR,,0.00,WeatherDisplay:10.37,2013-07-25 20:43:00,
2013-07-25 16:48:00,80.9,68.0,29.98,WSW,253,0.0,0.0,65,0.00,CLR,,0.00,WeatherDisplay:10.37,2013-07-25 20:48:00,
2013-07-25 16:53:00,80.8,67.9,29.98,WNW,287,1.1,1.1,65,0.00,CLR,,0.00,WeatherDisplay:10.37,2013-07-25 20:53:00,
2013-07-25 16:58:00,80.8,67.9,29.98,West,277,0.0,0.0,65,0.00,CLR,,0.00,WeatherDisplay:10.37,2013-07-25 20:58:00,
2013-07-25 17:03:00,80.7,68.3,29.99,WNW,302,0.0,0.0,66,0.00,CLR,,0.00,WeatherDisplay:10.37,2013-07-25 21:03:00,
2013-07-25 17:08:00,80.4,67.1,29.99,WNW,285,1.2,1.2,64,0.00,CLR,,0.00,WeatherDisplay:10.37,2013-07-25 21:08:00,
2013-07-25 17:13:00,80.1,67.3,29.99,West,281,4.6,4.6,65,0.00,CLR,,0.00,WeatherDisplay:10.37,2013-07-25 21:13:00,
2013-07-25 17:19:00,79.7,66.9,29.99,West,276,1.2,1.2,65,0.00,CLR,,0.00,WeatherDisplay:10.37,2013-07-25 21:19:00,
2013-07-25 17:24:00,79.4,67.5,29.99,West,280,10.4,10.4,67,0.00,CLR,,0.00,WeatherDisplay:10.37,2013-07-25 21:24:00,
2013-07-25 17:28:00,79.2,67.3,29.99,WSW,252,0.0,0.0,67,0.00,CLR,,0.00,WeatherDisplay:10.37,2013-07-25 21:28:00,
2013-07-25 17:34:00,79.0,68.4,29.99,SW,222,6.9,6.9,70,0.00,CLR,,0.00,WeatherDisplay:10.37,2013-07-25 21:34:00,
2013-07-25 17:39:00,78.9,68.3,29.99,WSW,247,2.3,2.3,70,0.00,CLR,,0.00,WeatherDisplay:10.37,2013-07-25 21:39:00,
2013-07-25 17:44:00,78.7,67.7,29.99,SW,217,5.8,5.8,69,0.00,CLR,,0.00,WeatherDisplay:10.37,2013-07-25 21:44:00,
2013-07-25 17:49:00,78.6,68.0,29.99,WSW,250,3.5,3.9,70,0.00,CLR,,0.00,WeatherDisplay:10.37,2013-07-25 21:49:00,
2013-07-25 17:54:00,78.5,68.3,29.99,West,270,1.2,1.2,71,0.00,CLR,,0.00,WeatherDisplay:10.37,2013-07-25 21:54:00,
2013-07-25 17:59:00,78.3,68.1,29.99,West,264,3.3,3.3,71,0.00,CLR,,0.00,WeatherDisplay:10.37,2013-07-25 21:59:00,
2013-07-25 18:04:00,78.1,67.9,29.99,WNW,287,7.6,7.6,71,0.00,CLR,,0.00,WeatherDisplay:10.37,2013-07-25 22:04:00,
2013-07-25 18:09:00,77.9,67.7,29.99,West,260,3.5,3.5,71,0.00,CLR,,0.00,WeatherDisplay:10.37,2013-07-25 22:09:00,
2013-07-25 18:14:00,77.7,67.5,29.99,WNW,289,0.0,0.0,71,0.00,CLR,,0.00,WeatherDisplay:10.37,2013-07-25 22:14:00,
2013-07-25 18:19:00,77.5,67.4,29.99,West,278,3.5,3.5,71,0.00,CLR,,0.00,WeatherDisplay:10.37,2013-07-25 22:19:00,
2013-07-25 18:24:00,77.2,67.5,30.00,West,281,3.5,3.5,72,0.00,CLR,,0.00,WeatherDisplay:10.37,2013-07-25 22:24:00,
2013-07-25 18:29:00,77.0,67.7,29.99,WSW,253,1.2,1.2,73,0.00,CLR,,0.00,WeatherDisplay:10.37,2013-07-25 22:29:00,
2013-07-25 18:34:00,76.9,67.6,30.00,WNW,300,4.6,0.0,73,0.00,CLR,,0.00,WeatherDisplay:10.37,2013-07-25 22:34:00,
2013-07-25 18:39:00,76.7,67.8,30.00,West,260,2.3,2.3,74,0.00,CLR,,0.00,WeatherDisplay:10.37,2013-07-25 22:39:00,
2013-07-25 18:44:00,76.5,67.2,30.00,West,269,1.2,1.2,73,0.00,CLR,,0.00,WeatherDisplay:10.37,2013-07-25 22:44:00,
2013-07-25 18:49:00,76.4,67.5,30.00,WNW,285,3.5,3.5,74,0.00,CLR,,0.00,WeatherDisplay:10.37,2013-07-25 22:49:00,
2013-07-25 18:54:00,76.2,67.3,30.00,West,268,5.8,5.8,74,0.00,CLR,,0.00,WeatherDisplay:10.37,2013-07-25 22:54:00,
2013-07-25 18:59:00,76.0,66.7,30.00,WSW,257,2.3,2.3,73,0.00,CLR,,0.00,WeatherDisplay:10.37,2013-07-25 22:59:00,
2013-07-25 19:04:00,75.8,66.9,30.00,West,266,1.2,0.0,74,0.00,CLR,,0.00,WeatherDisplay:10.37,2013-07-25 23:04:00,
2013-07-25 19:09:00,75.7,68.0,30.00,South,178,1.2,1.2,77,0.00,CLR,,0.00,WeatherDisplay:10.37,2013-07-25 23:09:00,
2013-07-25 19:14:00,75.5,67.0,30.00,WNW,289,4.4,4.4,75,0.00,CLR,,0.00,WeatherDisplay:10.37,2013-07-25 23:14:00,
2013-07-25 19:15:00,75.5,67.0,30.00,WNW,287,5.8,5.8,75,0.00,CLR,,0.00,WeatherDisplay:10.37,2013-07-25 23:15:00,
2013-07-25 19:20:00,75.4,66.5,30.00,WSW,238,1.3,2.4,74,0.00,CLR,,0.00,WeatherDisplay:10.37,2013-07-25 23:20:00,
2013-07-25 19:25:00,75.2,67.5,30.00,SW,229,1.2,1.2,77,0.00,CLR,,0.00,WeatherDisplay:10.37,2013-07-25 23:25:00,
2013-07-25 19:30:00,75.1,66.6,30.01,WSW,252,0.0,0.0,75,0.00,CLR,,0.00,WeatherDisplay:10.37,2013-07-25 23:30:00,
2013-07-25 19:35:00,74.9,66.1,30.01,WNW,282,4.6,4.6,74,0.00,CLR,,0.00,WeatherDisplay:10.37,2013-07-25 23:35:00,
2013-07-25 19:40:00,74.8,66.3,30.01,NNW,346,3.3,3.3,75,0.00,CLR,,0.00,WeatherDisplay:10.37,2013-07-25 23:40:00,
2013-07-25 19:45:00,74.7,67.4,30.02,West,259,3.5,0.0,78,0.00,CLR,,0.00,WeatherDisplay:10.37,2013-07-25 23:45:00,
2013-07-25 19:50:00,74.6,66.9,30.02,NW,313,4.6,4.6,77,0.00,CLR,,0.00,WeatherDisplay:10.37,2013-07-25 23:50:00,
2013-07-25 19:55:00,74.4,67.8,30.02,NW,308,0.0,0.0,80,0.00,CLR,,0.00,WeatherDisplay:10.37,2013-07-25 23:55:00,
2013-07-25 20:00:00,74.1,66.4,30.02,WSW,250,0.0,0.1,77,0.00,CLR,,0.00,WeatherDisplay:10.37,2013-07-26 00:00:00,
2013-07-25 20:05:00,73.9,67.0,30.02,NW,314,4.6,4.6,79,0.00,CLR,,0.00,WeatherDisplay:10.37,2013-07-26 00:05:00,
2013-07-25 20:10:00,73.8,66.5,30.03,NNW,329,3.5,3.5,78,0.00,CLR,,0.00,WeatherDisplay:10.37,2013-07-26 00:10:00,
2013-07-25 20:15:00,73.5,66.2,30.03,NNW,331,4.6,4.6,78,0.00,CLR,,0.00,WeatherDisplay:10.37,2013-07-26 00:15:00,
2013-07-25 20:20:00,73.2,65.9,30.03,NE,56,1.2,0.0,78,0.00,CLR,,0.00,WeatherDisplay:10.37,2013-07-26 00:20:00,
2013-07-25 20:25:00,72.9,66.0,30.03,ESE,120,1.2,0.0,79,0.00,CLR,,0.00,WeatherDisplay:10.37,2013-07-26 00:25:00,
2013-07-25 20:30:00,72.6,65.7,30.03,WNW,295,10.4,0.0,79,0.00,CLR,,0.00,WeatherDisplay:10.37,2013-07-26 00:30:00,
2013-07-25 20:35:00,72.5,65.6,30.03,NW,304,5.8,5.8,79,0.00,CLR,,0.00,WeatherDisplay:10.37,2013-07-26 00:35:00,
2013-07-25 20:40:00,72.4,65.5,30.03,NNE,18,4.4,4.4,79,0.00,CLR,,0.00,WeatherDisplay:10.37,2013-07-26 00:40:00,
2013-07-25 20:45:00,72.3,65.4,30.03,SW,214,0.0,2.7,79,0.00,CLR,,0.00,WeatherDisplay:10.37,2013-07-26 00:45:00,
2013-07-25 20:50:00,72.2,65.3,30.03,ENE,63,4.6,4.6,79,0.00,CLR,,0.00,WeatherDisplay:10.37,2013-07-26 00:50:00,
2013-07-25 20:55:00,72.1,65.2,30.03,NW,315,1.2,1.2,79,0.00,CLR,,0.00,WeatherDisplay:10.37,2013-07-26 00:55:00,
2013-07-25 21:00:00,72.0,65.1,30.03,NW,316,0.0,0.0,79,0.00,CLR,,0.00,WeatherDisplay:10.37,2013-07-26 01:00:00,
2013-07-25 21:05:00,71.9,65.0,30.03,NW,312,0.0,0.0,79,0.00,CLR,,0.00,WeatherDisplay:10.37,2013-07-26 01:05:00,
2013-07-25 21:10:00,71.9,65.0,30.03,NW,312,0.0,0.0,79,0.00,CLR,,0.00,WeatherDisplay:10.37,2013-07-26 01:10:00,
2013-07-25 21:15:00,71.8,65.7,30.03,NW,312,0.0,0.0,81,0.00,CLR,,0.00,WeatherDisplay:10.37,2013-07-26 01:15:00,
2013-07-25 21:20:00,71.7,65.2,30.03,NW,312,0.0,0.0,80,0.00,CLR,,0.00,WeatherDisplay:10.37,2013-07-26 01:20:00,
2013-07-25 21:25:00,71.6,65.1,30.03,NW,312,0.0,0.0,80,0.00,CLR,,0.00,WeatherDisplay:10.37,2013-07-26 01:25:00,
2013-07-25 21:30:00,71.5,65.0,30.03,NW,312,0.0,0.0,80,0.00,CLR,,0.00,WeatherDisplay:10.37,2013-07-26 01:30:00,
2013-07-25 21:35:00,71.3,64.8,30.04,NW,312,1.2,0.0,80,0.00,CLR,,0.00,WeatherDisplay:10.37,2013-07-26 01:35:00,
2013-07-25 21:40:00,71.2,64.7,30.04,NW,312,0.0,0.0,80,0.00,CLR,,0.00,WeatherDisplay:10.37,2013-07-26 01:40:00,
2013-07-25 21:45:00,71.1,65.0,30.04,North,351,0.0,0.0,81,0.00,CLR,,0.00,WeatherDisplay:10.37,2013-07-26 01:45:00,
2013-07-25 21:50:00,70.9,64.8,30.04,North,351,0.0,0.0,81,0.00,CLR,,0.00,WeatherDisplay:10.37,2013-07-26 01:50:00,
2013-07-25 21:55:00,70.8,64.7,30.04,North,351,0.0,0.0,81,0.00,CLR,,0.00,WeatherDisplay:10.37,2013-07-26 01:55:00,
2013-07-25 22:00:00,70.7,64.6,30.04,North,351,0.0,0.0,81,0.00,CLR,,0.00,WeatherDisplay:10.37,2013-07-26 02:00:00,
2013-07-25 22:05:00,70.5,64.4,30.04,North,351,0.0,0.0,81,0.00,CLR,,0.00,WeatherDisplay:10.37,2013-07-26 02:05:00,
2013-07-25 22:10:00,70.3,64.5,30.05,NNE,33,0.0,0.0,82,0.00,CLR,,0.00,WeatherDisplay:10.37,2013-07-26 02:10:00,
2013-07-25 22:15:00,70.1,64.3,30.05,ENE,64,2.3,0.0,82,0.00,CLR,,0.00,WeatherDisplay:10.37,2013-07-26 02:15:00,
2013-07-25 22:20:00,70.0,64.2,30.05,East,100,0.0,0.0,82,0.00,CLR,,0.00,WeatherDisplay:10.37,2013-07-26 02:20:00,
2013-07-25 22:25:00,69.9,64.2,30.06,East,100,0.0,0.0,82,0.00,CLR,,0.00,WeatherDisplay:10.37,2013-07-26 02:25:00,
2013-07-25 22:30:00,69.8,64.1,30.06,East,100,0.0,0.0,82,0.00,CLR,,0.00,WeatherDisplay:10.37,2013-07-26 02:30:00,
2013-07-25 22:35:00,69.8,64.1,30.06,East,100,0.0,0.0,82,0.00,CLR,,0.00,WeatherDisplay:10.37,2013-07-26 02:35:00,
2013-07-25 22:40:00,69.7,64.0,30.06,East,100,0.0,0.0,82,0.00,CLR,,0.00,WeatherDisplay:10.37,2013-07-26 02:40:00,
2013-07-25 22:45:00,69.6,64.2,30.06,East,100,0.0,0.0,83,0.00,CLR,,0.00,WeatherDisplay:10.37,2013-07-26 02:45:00,
2013-07-25 22:50:00,69.4,64.0,30.06,East,100,0.0,0.0,83,0.00,CLR,,0.00,WeatherDisplay:10.37,2013-07-26 02:50:00,
2013-07-25 22:55:00,69.2,63.8,30.06,East,100,0.0,0.0,83,0.00,CLR,,0.00,WeatherDisplay:10.37,2013-07-26 02:55:00,
2013-07-25 23:00:00,69.0,64.0,30.06,East,100,0.0,0.0,84,0.00,CLR,,0.00,WeatherDisplay:10.37,2013-07-26 03:00:00,
2013-07-25 23:05:00,68.8,64.4,30.06,East,100,0.0,0.0,86,0.00,CLR,,0.00,WeatherDisplay:10.37,2013-07-26 03:05:00,
2013-07-25 23:10:00,68.5,64.1,30.06,East,100,0.0,0.0,86,0.00,CLR,,0.00,WeatherDisplay:10.37,2013-07-26 03:10:00,
2013-07-25 23:15:00,68.2,63.9,30.07,East,100,0.0,0.0,86,0.00,CLR,,0.00,WeatherDisplay:10.37,2013-07-26 03:15:00,
2013-07-25 23:20:00,68.1,64.1,30.07,East,100,0.0,0.0,87,0.00,CLR,,0.00,WeatherDisplay:10.37,2013-07-26 03:20:00,
2013-07-25 23:25:00,68.0,64.3,30.06,East,100,0.0,0.0,88,0.00,CLR,,0.00,WeatherDisplay:10.37,2013-07-26 03:25:00,
2013-07-25 23:30:00,67.9,64.2,30.06,East,100,0.0,0.0,88,0.00,CLR,,0.00,WeatherDisplay:10.37,2013-07-26 03:30:00,
2013-07-25 23:35:00,67.8,64.1,30.06,East,100,0.0,0.0,88,0.00,CLR,,0.00,WeatherDisplay:10.37,2013-07-26 03:35:00,
2013-07-25 23:40:00,67.6,63.9,30.06,East,100,0.0,0.0,88,0.00,CLR,,0.00,WeatherDisplay:10.37,2013-07-26 03:40:00,
2013-07-25 23:45:00,67.5,64.1,30.07,East,100,0.0,0.0,89,0.00,CLR,,0.00,WeatherDisplay:10.37,2013-07-26 03:45:00,
2013-07-25 23:50:00,67.3,63.9,30.07,East,100,0.0,0.0,89,0.00,CLR,,0.00,WeatherDisplay:10.37,2013-07-26 03:50:00,
2013-07-25 23:55:00,67.2,64.2,30.06,East,100,0.0,0.0,90,0.00,CLR,,0.00,WeatherDisplay:10.37,2013-07-26 03:55:00,